Location: Shannon
(40.5500°S, 175.4167°E)
Time: 09:00:12
(UTC+00:00)

Cosmos 2228 Rocket - Pass Details

Date: 17 November 2025
Orbit: 614 x 645 km, 82.5° (Epoch: 14 December)

Event Time Altitude Azimuth Distance (km) Brightness Sun altitude
Rises 14:05:01 0° 183° (S) 2,936 7.4 -24.0°
Reaches altitude 10° 14:07:20 10° 177° (S) 2,018 6.5 -23.7°
Maximum altitude 14:11:41 50° 101° (E) 798 3.8 -23.3°
Enters shadow 14:13:15 34° 46° (NE) 1,039 4.1 -23.1°
